STARLINK-1397, 45682

Orbit data source: Space-Track

STARLINK-1397, 45682 is a payload satellite owned by SpaceX/Seattle (US) in LEO that was launched on Thu, 04 Jun 2020 UTC via an FALCON 9 launch vehicle from the Air Force Eastern Test Range (AFETR). Payload-class satellites include a variety of spacecraft equipped with specific instruments for various scientific and technological missions. These include communications satellites like Starlink; space stations such as the ISS; scientific satellites like the Hubble; Earth observation satellites from companies like Planet Labs, Umbra, and HawkEye 360; GPS; miniature CubeSats for education and research; and military/defense satellites.

Loading next visibility...
Identifier
45682, 2020-035AB
Orbit
LEO
Last TLE update
2 days ago
Origin
Manufacturer
SpaceX/Seattle
Mission
Partially operational Commercial Communications
Bus & Motor
STARLINK, Unknown motor
Mass
260 kg wet, ~248 kg dry
Launch date (UTC)
2020-06-04 (5 years ago)
Launch vehicle
FALCON 9
Launch site
Air Force Eastern Test Range (AFETR)
Object type
Payload
Rocket body
Debris
Shape & HBR
Box + 1 Pan, 8.86 m
Radar Cross Section
13.562 m², Large (>1 m²)

Expand to show TLE details & history

TLE from 2 days ago
0 STARLINK-1397
1 45682U 20035AB  25118.33000699  .00647973  20787-3  10457-2 0  9994
2 45682  53.0444 340.6245 0007415 250.0665 109.9567 16.02881773272058
Epoch: 2025-04-28T07:55Z
Definitive object data (Epoch: 2025-04-28T07:55:12.603Z)
Latitude
-0.00006°
Longitude
5.27636°
Altitude
269.043 km
Speed
7.746 km/s
True Right ascension
22h 42m 29s
True Declination
0° 00' 00"
Sunlit
Object was in daylight at TLE epoch
Visualization TLE readout
Latitude
-14.32318°
Longitude
-172.63823°
Altitude
261.32 km
Speed
7.752 km/s
Apparent Right ascension
14h 06m 24s
Apparent Declination
-58° 15' 35"
Sunlit
Object is in full shadow
Visualization observer readout
Local Sidereal Time
08:39:23
Azimuth
143.387° SSE
Elevation
-29.198°
Doppler factor
1
Orbital elements
Apogee altitude
271.653 km
Perigee altitude
261.799 km
Semi-major axis
6,644.863 km
Eccentricity
0.0007415
Inclination
53.0444°
RAAN
340.6245°
Arg. of periapsis
250.0665°
True anomaly
110.03654°
Mean anomaly
109.9567°
Eccentric anomaly
109.99662°
Mean motion
4.00695 °/min
BSTAR
0.0010457
Orbital period
89.84 mins
Loading maneuver chart data...
Loading SW <> Apogee altitude chart data...

STARLINK-1397 Visibility forecast

Observer location: undefined°, undefined°

Span
Click to sort rows by Start time (UTC) header in descending order
Start Az.
Max El. time (UTC)
Max El. Az.
Max El.
End time (UTC)
End Az.
4 mins2025-04-30 16:54:54.849Z232.981° WSW2025-04-30 16:56:54.849Z343.397° N44.482°2025-04-30 16:58:54.849Z47.806° ENE
|